sat.trackr.live / text

‹ back to catalog

STARLINK-34466

NORAD 66226 · 2025-244W

PAYLOAD ACTIVE UNKNOWN

§ Identity

Operator
Country
US
Launch date
2025-10-28
Launch site
AFWTR
Launch vehicle
Mass (kg)
RCS (m²)

Purposes: comms

External: N2YO · Heavens-Above · Gunter

§ Orbital elements

Epoch: 2026-05-24T05:12:08.639424Z

Period
94.04 min
Inclination
53.1584°
Eccentricity
0.0002587
Mean motion
15.31254274 rev/d
Perigee alt
470.3 km
Apogee alt
473.8 km
Semi-major
6,850.2 km
B*
8.9805e-3
RAAN
239.0524°
Arg perigee
323.7517°
Mean anomaly
36.3309°
Rev number
3,322

§ Raw data

STARLINK-344661 66226U 25244W   26144.21676666  .00285219  00000+0  89805-2 0  99942 66226  53.1584 239.0524 0002587 323.7517  36.3309 15.31254274 33223

JSON: /api/v1/satellites/66226 · /tle

For live sub-satellite position, see the globe view (requires WebGL).

§ Visibility from observer

Set your observer location to see the next 7 days of passes ≥ 10°. The values pass through the URL so the page stays shareable.

No JS? Fill the form by hand. The geolocation button needs JavaScript.